1370307034242,0.000160212
1370307094242,0.000159482
1370307154242,0.000161049
1370307214242,0.000162510
1370307274242,0.000162791
1370310634253,0.000154434
1370310694253,0.000155032
1370310754253,0.000154969
1370310814253,0.000156640
1370310874253,0.000155030
1370314234263,0.000155287
1370314294263,0.000155240
1370314354263,0.000154508
1370314414263,0.000154402
1370314474263,0.000153290
1370317834273,0.000156449
1370317894273,0.000154124
1370317954273,0.000156598
1370318014273,0.000155491
1370318074273,0.000155015
1370321434282,0.000154661
1370321494282,0.000155746
1370321554282,0.000156211
1370321614282,0.000154849
1370321674282,0.000155038
1370325034292,0.000153577
1370325094292,0.000153793
1370325154292,0.000153165
1370325214292,0.000155748
1370325274292,0.000154080
1370328634301,0.000153286
1370328694301,0.000153202
1370328754301,0.000153301
1370328814301,0.000153325
1370328874301,0.000153636
1370332234310,0.000154998
1370332294310,0.000155552
1370332354310,0.000154402
1370332414310,0.000154434
1370332474310,0.000154054
1370335834319,0.000152597
1370335894319,0.000154914
1370335954319,0.000154621
1370336014319,0.000155609
1370336074319,0.000155362
1370339434328,0.000157683
1370339494328,0.000157507
1370339554328,0.000156213
1370339614328,0.000157057
1370339674328,0.000156609
1370343034338,0.000154902
1370343094338,0.000154520
1370343154338,0.000154852
1370343214338,0.000156110
1370343274338,0.000156954
1370346634347,0.000154408
1370346694347,0.000154634
1370346754347,0.000156083
1370346814347,0.000154000
1370346874347,0.000154170
1370350234356,0.000156581
1370350294356,0.000156957
1370350354356,0.000154669
1370350414356,0.000155118
1370350474356,0.000155960
1370353834365,0.000155684
1370353894365,0.000154783
1370353954365,0.000155890
1370354014365,0.000156739
1370354074365,0.000155840
1370357434374,0.000155388
1370357494374,0.000155989
1370357554374,0.000156384
1370357614374,0.000158113
1370357674374,0.000157616
1370361034383,0.000158054
1370361094383,0.000156487
1370361154383,0.000156227
1370361214383,0.000157474
1370361274383,0.000158059
1370364634392,0.000157970
1370364694392,0.000158941
1370364754392,0.000154859
1370364814392,0.000157956
1370364874392,0.000157969
1370368234402,0.000156733
1370368294402,0.000156719
1370368354402,0.000158625
1370368414402,0.000158711
1370368474402,0.000154573
1370371834412,0.000155606
1370371894412,0.000157144
1370371954412,0.000154934
1370372014412,0.000155654
1370372074412,0.000157023
1370375434422,0.000155569
1370375494422,0.000156151
1370375554422,0.000157002
1370375614422,0.000156415
1370375674422,0.000156655
1370379034433,0.000157363
1370379094433,0.000156828
1370379154433,0.000156844
1370379214433,0.000157914
1370379274433,0.000157131
1370382634444,0.000157017
1370382694444,0.000157618
1370382754444,0.000160353
1370382814444,0.000157406
1370382874444,0.000157914
1370386234455,0.000158599
1370386294455,0.000158231
1370386354455,0.000157704
1370386414455,0.000160748
1370386474455,0.000157745
1370389834466,0.000158147
1370389894466,0.000160144
1370389954466,0.000158797
1370390014466,0.000160547
1370390074466,0.000159482
